Погода в Маунт-Хагене

Папуа-Новая Гвинея     5°53′54″S   144°08′38″E
темп.,
°C
ветер,
м/с
пор.,
м/с
влажн.,
%
обл.,
%
осадки,
мм/ч
давл.,
гПа
погр.,
м
6 марта, сб
сб601:00+15ю01100100 1.9 101239
04:00+14ю1210097 2.3 101191
07:00+14ю019999 0.0 101252
10:00+19ю128295 0.3 1013542
13:00+20ю238643 3.5 1009742
16:00+18ю129772 10.6 1008167
19:00+16ююв13100100 6.4 1010230
22:00+15в01100100 17.8 1013105
7 марта, вс
вс701:00+15ссз0199100 4.3 101266
04:00+14зюз0199100 4.6 101237
07:00+14ююз1199100 0.3 101354
10:00+19ююз1281100 0.6 1013576
13:00+19ююз2290100 2.5 1010447
16:00+18ююв2394100 6.7 1008462
19:00+15ююв12100100 4.8 1011154
22:00+15ю12100100 12.6 1013121
8 марта, пн
пн801:00+14сз0199100 9.1 101244
04:00+14ююз0198100 9.3 101149
07:00+14ю1199100 0.1 101351
10:00+18ю228489 0.4 1014618
13:00+21ю127138 2.1 1011947
16:00+19ююв139162 6.2 1009674
19:00+15ююв12100100 11.1 1012131
22:00+14юв1199100 16.4 101457
9 марта, вт
вт901:00+14ююз11100100 4.3 101375
04:00+14з0199100 6.7 101140
07:00+14ю0199100 0.8 101358
10:00+16зсз1197100 2.1 1014157
13:00+20ююв0076100 0.8 1011632
16:00+18ю2391100 2.3 1009429
19:00+15ю1199100 0.9 101227
22:00+15ссз0198100 1.8 101423
10 марта, ср
ср1001:00+14с1199100 0.4 101326
04:00+14с1198100 0.8 101223
07:00+14ссв119793 0.1 101323
10:00+20с018396 1.3 1014468
13:00+21юв018492 3.8 1010750
16:00+16ссв119796 10.4 100944
19:00+15всв0198100 8.9 101225
22:00+15св1198100 10.2 101433